Simultaneous Nadir Overpasses (SNOs) Predictions

Prediction of SNOs between METOP-B and NOAA-19 Satellite Orbit:

Table of predicted SNOs for the next 14.0 days since TLE Epoch: 12/7/2018
Index Date (METOP-B) Time (METOP-B) Lat,Lon (METOP-B) SZA (METOP-B ) Date (NOAA-19) Time (NOAA-19) Lat,Lon (NOAA-19) SZA (NOAA-19 ) Distance(km) Time Diff (sec)
1 12/09/2018 00:05:04 78.83,-168.54 101.90 12/09/2018 00:04:07 78.86,-168.59 101.91 3.19 57
2 12/09/2018 00:55:45 -78.83, -1.21 78.10 12/09/2018 00:55:01 -78.82, -1.05 78.11 3.45 44
3 12/09/2018 01:46:26 78.82, 166.04 101.89 12/09/2018 01:46:07 78.82, 166.16 101.90 2.86 19
4 12/09/2018 02:37:07 -78.82, -26.63 78.11 12/09/2018 02:37:02 -78.82, -26.56 78.11 1.73 5
5 12/09/2018 03:27:48 78.80, 140.61 101.88 12/09/2018 03:28:08 78.82, 140.66 101.90 2.43 20
6 12/09/2018 04:18:29 -78.80, -52.05 78.12 12/09/2018 04:19:03 -78.82, -52.06 78.10 2.05 34
7 12/09/2018 05:09:10 78.79, 115.19 101.87 12/09/2018 05:10:09 78.82, 115.16 101.91 3.67 59
8 12/09/2018 05:59:51 -78.79, -77.48 78.13 12/09/2018 06:01:03 -78.79, -77.31 78.11 3.55 72
9 12/19/2018 21:55:50 79.00,-135.08 102.69 12/19/2018 21:54:40 79.02,-137.09 102.62 42.67 70
10 12/19/2018 22:46:35 -78.87, 31.35 77.49 12/19/2018 22:45:30 -78.86, 31.43 77.50 1.61 65
11 12/19/2018 23:37:15 78.88,-161.25 102.53 12/19/2018 23:36:36 78.86,-161.31 102.51 2.51 39
12 12/20/2018 00:27:57 -78.85, 5.93 77.50 12/20/2018 00:27:31 -78.86, 5.92 77.50 1.03 26
13 12/20/2018 01:18:37 78.86, 173.33 102.52 12/20/2018 01:18:37 78.86, 173.18 102.51 3.14 0
14 12/20/2018 02:09:19 -78.84, -19.49 77.52 12/20/2018 02:09:32 -78.86, -19.58 77.50 3.09 13
15 12/20/2018 02:59:59 78.85, 147.90 102.50 12/20/2018 03:00:37 78.82, 147.93 102.48 2.93 38
16 12/20/2018 03:50:41 -78.83, -44.92 77.53 12/20/2018 03:51:32 -78.83, -44.83 77.52 1.87 51
17 12/20/2018 04:41:24 78.72, 121.76 102.35 12/20/2018 04:42:36 78.76, 122.93 102.44 25.63 72




NCC Satellite Simultaneous Nadir Overpasses (SNOs) Prediction Service
